Location: Madrid
(40.4000°N, 3.6830°W)
Time: 01:29:10
(UTC+02:00)

ISS - Pass Details

Date: 18 July 2019
Orbit: 409 x 418 km, 51.6° (Epoch: 23 July)

Event Time Altitude Azimuth Distance (km) Brightness Sun altitude
Rises 03:03:34 0° 309° (NW) 2,348 0.4 -27.7°
Reaches altitude 10° 03:06:33 10° 338° (NNW) 1,483 -0.3 -27.6°
Maximum altitude 03:08:14 13° 9° (N) 1,304 -0.4 -27.5°
Drops below altitude 10° 03:09:55 10° 39° (NE) 1,480 -0.2 -27.5°
Sets 03:12:53 0° 69° (ENE) 2,339 0.5 -27.3°
